Regional Weather Roundup
Issued by NWS

Home | Current Version | Previous Version | Text Only | Print | Product List | Glossary On
Versions: 1 2 3 4 5 6 7 8 9 10 11 12 13 14 15 16 17 18 19 20 21 22 23 24 25 26 27 28 29 30 31 32 33 34 35 36 37 38 39 40 41 42 43 44 45 46 47 48 49 50
000
ASUS43 KTOP 212208
RWRKS

WEATHER ROUNDUP FOR KANSAS
NATIONAL WEATHER SERVICE GOODLAND KS
400 PM CST TUE FEB 21 2017

NOTE:  "FAIR" INDICATES FEW OR NO CLOUDS BELOW 12,000 FEET WITH NO
SIGNIFICANT WEATHER AND/OR OBSTRUCTIONS TO VISIBILITY.

KSZ001>006-013>018-027>032-041>047-212300-
NORTHWEST KANSAS

CITY           SKY/WX    TMP DP  RH WIND       PRES   REMARKS
GOODLAND       SUNNY     77  17  10 VRB6      29.93F
HAYS             N/A     77  25  14 VRB6      29.89F
HILL CITY      SUNNY     81  27  14 N10       29.88F
RUSSELL        SUNNY     77  22  13 SW12      29.87F
$$

KSZ061>065-074>080-084>089-212300-
SOUTHWEST KANSAS

CITY           SKY/WX    TMP DP  RH WIND       PRES   REMARKS
DODGE CITY     SUNNY     78  15   9 VRB6      29.92F
ELKHART          N/A     77  27  16 NE6         N/A
GARDEN CITY    SUNNY     78  20  11 N9        29.94F
GREAT BEND     SUNNY     76  22  13 SW12      29.90F
LIBERAL        SUNNY     77  25  14 NW6G16    29.96F
PRATT          SUNNY     73  22  14 W6        29.92F
$$

KSZ066>073-081>083-090>101-212300-
SOUTHEAST KANSAS

CITY           SKY/WX    TMP DP  RH WIND       PRES   REMARKS
CHANUTE        SUNNY     73  47  39 NW7       29.90F
COFFEYVILLE    SUNNY     73  48  41 N13       29.90F
HUTCHINSON     SUNNY     74  26  16 SW7       29.92F
MEDICINE LODGE   N/A     74  26  16 VRB3      29.92F
NEWTON         SUNNY     68  35  29 SE3       29.94F
PARSONS        SUNNY     74  46  36 N8        29.91F
WICHITA INTL   MOSUNNY   71  30  21 CALM      29.93F
WICHITA JABRA  SUNNY     70  36  28 CALM      29.93F
WICHITA MCCONL SUNNY     71  31  22 NE3       29.93F
WINFIELD       SUNNY     71  31  22 VRB6      29.95F
$$

KSZ007>012-019>026-033>040-048>060-102>105-212300-
NORTHEAST KANSAS

CITY           SKY/WX    TMP DP  RH WIND       PRES   REMARKS
CONCORDIA      SUNNY     75  27  17 SW16      29.87F
EMPORIA        SUNNY     70  32  24 VRB3      29.93S
LAWRENCE       SUNNY     71  36  27 W6        29.91F
MANHATTAN      SUNNY     71  33  24 SW8       29.90F
MARYSVILLE     SUNNY     72  36  26 S10       29.88F
OLATHE IND     SUNNY     71  40  32 NW5       29.90F
OLATHE EXE     SUNNY     71  43  36 N7        29.90F
SALINA         SUNNY     78  24  13 SW9       29.90F
TOPEKA BILLARD SUNNY     70  38  31 W3        29.92S
TOPEKA FORBES  SUNNY     71  29  21 N6        29.92F
$$




USA.gov is the U.S. government's official web portal to all federal, state and local government web resources and services.